User: anonymous   Login
Location: Unspecified
(0.0000°N, 0.0000°E)
Time: 08:37:00
(UTC+00:00)
Language:

MUOS 3 - Orbit

View from above orbital plane
View from above orbital plane
View from above satellite
View from above satellite

Ground track
Ground track

The orbit data is extracted from the following two-line orbital elements,

1 40374U 15002A   18347.74860880 -.00000120  00000-0  00000+0 0  9993
2 40374   3.4263 336.4127 0054109 184.3554 175.6558  1.00271680 14325
Epoch (UTC): 13 December 2018 17:57:59
Eccentricity: 0.0054109
inclination: 3.4263°
perigee height: 35558 km
apogee height: 36014 km
right ascension of ascending node: 336.4127°
argument of perigee: 184.3554°
revolutions per day: 1.00271680
mean anomaly at epoch: 175.6558°
orbit number at epoch: 1432

The dashed part of the orbit path shows where the satellite is in the earth's shadow,  

DLR